Location: Dodge City Co - Operative Exchange Grain Elevator Number 8
(38.1218°N, 99.7124°W)
Time: 08:34:08
(UTC+00:00)

Meteor 1-26 Rocket - Pass Details

Date: 03 March 2021
Orbit: 807 x 928 km, 81.3° (Epoch: 13 April)

Event Time Altitude Azimuth Distance (km) Brightness Sun altitude
Rises 12:13:12 0° 187° (S) 3,370 7.3 -11.5°
Reaches altitude 10° 12:15:33 10° 187° (S) 2,456 6.5 -11.0°
Maximum altitude 12:21:09 90° 287° (WNW) 870 4.3 -9.9°
Drops below altitude 10° 12:26:58 10° 9° (N) 2,555 6.8 -8.7°
Sets 12:29:28 0° 9° (N) 3,516 7.5 -8.3°
